Wind_Speed
6 5 5 4 6 6 5 6 10 13 14 16 21 24 26 29 34 36 39 43 46 45 46 46 44 45 45 45 47 46 47 49 51 51 50 50 50 49 47 46 44 43 43 42
4 4 4 4 4 5 3 5 9 10 12 13 16 20 23 28 33 34 36 40 43 44 45 45 44 43 43 42 44 46 45 47 50 50 50 51 51 50 49 48 47 45 44 45
3 4 4 4 4 2 1 3 6 7 9 11 13 14 19 26 31 33 35 37 39 43 42 43 42 43 43 43 43 44 43 46 48 50 49 50 50 50 50 50 48 47 46 46
3 2 3 3 3 1 3 5 5 6 7 9 11 13 16 21 26 28 32 34 36 40 40 39 40 41 41 42 42 42 42 42 44 46 49 49 49 49 49 49 47 46 46 46
3 2 3 3 3 4 5 5 6 5 6 7 9 10 13 18 21 23 27 30 34 37 39 39 38 39 39 40 39 40 41 41 41 43 45 46 47 47 47 49 48 46 47 46
3 3 4 5 5 6 6 5 5 5 6 6 8 8 12 17 19 19 21 24 30 34 36 38 38 38 37 37 38 37 39 40 40 42 44 45 46 46 47 48 47 47 46 46
5 5 5 7 7 6 6 5 6 5 5 5 6 7 10 14 16 17 18 22 26 30 32 35 36 37 37 36 36 36 37 38 38 40 42 43 45 45 45 46 46 46 46 44
6 5 5 7 8 7 7 6 6 5 4 5 4 5 6 9 13 15 17 19 22 25 28 30 34 35 36 35 36 36 36 37 38 38 39 40 42 43 43 44 44 45 46 46
5 6 6 6 7 7 7 6 5 5 5 5 4 4 4 6 8 12 14 17 20 22 25 27 30 33 35 35 35 36 36 38 39 39 40 39 41 43 43 45 46 47 47 47
5 5 5 6 6 6 6 6 7 6 5 5 4 3 3 5 7 9 11 13 17 20 22 25 29 31 33 34 34 35 35 37 38 39 40 39 39 41 41 42 43 45 46 47
6 6 6 5 6 5 5 5 5 4 4 4 4 2 3 4 5 7 9 10 13 16 20 23 26 30 32 34 35 36 36 36 38 39 40 40 40 41 40 40 41 41 42 44
6 6 6 5 5 5 5 5 4 4 4 3 3 3 3 4 6 6 8 10 13 15 17 20 23 27 29 32 34 36 37 37 38 39 38 39 40 42 43 42 41 42 42 43
6 6 6 5 5 5 5 4 4 3 3 2 4 4 5 6 8 9 11 13 15 17 19 21 22 25 27 29 32 34 36 37 38 39 39 39 40 41 42 43 43 43 43 43
7 6 6 5 5 5 4 4 3 2 2 2 4 5 6 7 9 10 11 13 15 17 19 21 22 24 26 28 30 33 35 37 38 39 39 40 40 41 41 42 43 44 44 45
9 8 7 7 7 6 5 5 4 3 2 1 2 4 5 6 7 8 10 12 14 16 18 21 23 25 27 29 31 33 36 38 39 40 40 40 41 41 42 42 43 44 44 45
10 9 9 9 9 8 6 5 4 4 3 2 1 1 3 4 5 7 9 11 14 16 19 21 23 25 27 30 32 34 36 38 39 40 41 42 42 43 43 43 44 44 45 46
10 10 10 9 8 7 6 5 4 3 2 2 2 3 4 5 7 9 11 13 15 17 19 22 24 26 28 30 32 34 36 37 38 40 41 42 43 44 44 44 45 46 47 47
9 9 9 9 8 7 6 5 4 3 2 4 5 5 6 7 9 10 12 14 16 18 20 22 25 27 30 31 33 35 35 37 38 40 41 43 43 43 44 45 45 45 46 46
8 8 7 7 8 8 7 6 5 5 5 6 7 8 9 10 11 13 14 15 18 20 22 24 27 29 32 33 34 35 36 37 39 40 41 42 42 43 44 44 45 44 44 44
7 7 7 7 7 7 7 7 7 6 6 8 9 10 11 13 14 15 16 18 20 22 24 26 28 30 32 33 34 36 36 37 38 39 40 41 42 42 42 43 43 44 44 43
6 6 6 6 6 7 8 8 8 8 9 10 11 12 13 15 16 17 19 20 22 24 26 27 28 29 30 32 33 34 35 36 37 38 39 40 41 41 42 42 42 43 43 43
5 5 5 5 6 7 8 9 10 10 11 12 13 14 15 17 18 20 21 23 24 25 26 27 27 28 29 31 32 33 34 35 36 37 38 38 38 39 40 41 41 41 41 41
3 4 5 5 6 8 9 10 11 12 13 14 15 16 17 19 20 21 23 24 25 26 27 27 27 27 28 29 30 31 32 33 34 35 36 37 37 38 39 39 39 39 39 39
1 3 4 5 7 8 10 12 13 14 15 16 17 18 19 20 22 23 24 26 26 27 28 28 28 28 29 29 29 29 30 31 33 34 35 36 37 37 36 37 37 38 38 38
3 4 5 6 8 9 11 13 14 16 17 18 19 20 21 23 24 25 26 27 28 29 30 30 30 30 31 31 30 30 30 31 32 33 34 35 36 37 36 36 37 37 37 37
6 6 6 7 9 10 12 14 16 17 18 20 21 22 23 25 26 27 28 29 29 30 31 31 31 31 31 31 30 30 30 30 31 32 33 34 34 35 36 35 35 35 36 37
Wind_Direction
324 312 297 288 293 292 265 244 229 217 210 217 219 217 216 214 211 209 208 210 212 214 213 215 217 217 217 220 220 221 221 220 219 219 222 225 227 228 231 233 233 236 237 238
331 315 310 303 302 302 265 231 215 209 209 216 213 217 215 214 213 210 210 210 213 215 216 217 217 217 220 219 219 220 221 221 220 220 223 225 226 228 231 233 234 236 238 240
326 326 328 332 326 319 267 207 195 190 195 204 209 211 211 211 211 211 212 213 213 214 214 218 219 220 221 220 220 223 223 222 222 223 225 226 228 231 233 234 236 237 240 242
350 357 8 8 14 72 129 151 169 183 189 196 203 204 203 206 208 212 213 216 216 216 216 218 220 221 224 224 223 224 224 224 224 224 226 228 230 233 234 236 238 240 241 243
30 36 45 40 70 92 117 135 146 155 173 188 196 203 205 205 207 209 212 215 216 217 219 221 223 224 226 229 230 231 228 228 228 228 228 229 233 235 236 238 240 243 245 247
62 66 73 76 87 96 108 120 134 139 146 164 177 190 197 203 208 211 215 219 218 221 222 223 226 227 229 232 235 236 235 234 233 233 233 235 236 237 239 240 242 243 245 247
73 80 81 81 88 93 103 118 128 123 120 127 156 179 196 207 214 218 220 221 224 226 227 227 231 232 233 236 237 241 241 238 237 238 238 239 239 240 242 242 244 244 245 247
90 95 92 92 90 98 101 109 124 130 125 115 135 168 197 211 220 226 224 223 228 230 235 236 236 238 239 239 240 242 245 245 243 242 242 242 242 244 245 246 247 248 248 250
94 89 96 98 92 97 107 112 117 130 132 131 134 153 185 209 220 224 228 230 231 233 237 239 240 241 242 242 243 244 246 247 247 248 248 248 248 247 248 250 250 250 251 254
95 92 95 96 99 106 112 117 127 130 128 131 133 153 190 210 218 224 227 227 231 236 239 240 241 243 243 243 245 246 247 248 250 251 250 250 251 251 252 252 251 252 253 254
91 86 91 98 104 115 120 126 132 132 142 150 157 179 226 232 229 230 232 235 238 242 244 245 244 243 245 245 247 247 249 250 252 254 254 254 254 252 252 252 252 253 254 254
93 84 85 97 109 118 123 128 137 138 148 176 194 209 231 246 255 259 255 253 254 254 254 252 249 247 249 250 249 250 252 252 254 255 256 257 257 257 257 256 256 255 256 255
95 90 90 98 112 120 120 128 134 149 165 196 221 232 249 251 258 261 261 260 260 263 263 262 259 255 253 253 252 252 252 253 253 254 254 255 257 257 258 258 258 257 257 257
92 91 89 93 106 112 110 116 121 125 160 205 230 238 253 256 256 260 263 265 263 264 265 265 263 260 260 259 258 257 256 256 255 255 256 256 257 258 259 259 259 259 260 259
86 84 86 88 98 105 103 100 100 99 105 163 231 245 258 267 262 263 268 270 264 263 266 267 266 264 263 263 263 261 260 260 260 259 258 258 258 259 260 260 260 260 260 261
84 78 80 83 85 85 90 90 88 83 77 78 27 293 294 297 290 278 275 278 274 270 268 269 268 267 266 266 265 265 263 262 262 262 261 260 260 260 260 261 261 261 261 261
86 80 79 78 76 74 76 76 77 72 63 23 345 323 311 301 296 288 280 279 280 277 274 271 269 270 269 268 268 267 266 265 264 263 263 263 262 260 260 260 261 261 260 261
88 80 74 72 68 66 59 56 50 35 6 340 326 320 316 312 308 301 295 288 287 284 281 278 275 275 273 272 271 269 267 266 265 265 264 264 264 263 262 261 262 261 261 261
82 78 73 68 61 54 46 36 24 7 350 336 328 323 321 316 314 309 304 300 295 291 287 284 280 278 276 275 274 272 270 268 267 266 266 266 266 265 264 264 264 263 262 261
78 71 68 61 50 42 31 23 14 1 346 335 329 325 320 318 314 312 309 306 301 298 295 289 285 282 280 278 276 275 273 271 269 269 269 268 267 266 265 264 264 263 263 262
76 66 59 48 35 28 16 9 2 355 344 336 329 324 321 318 316 314 311 308 306 303 301 298 293 288 285 283 280 277 275 273 272 271 269 268 267 265 264 263 263 263 262 261
72 58 48 33 19 9 1 357 354 347 340 334 329 325 322 320 318 318 315 312 310 308 306 302 298 294 291 288 285 280 276 274 272 270 268 268 267 266 264 263 262 262 261 260
64 41 30 20 10 3 356 351 346 342 339 335 330 327 324 322 320 319 318 316 314 311 310 307 303 299 296 294 290 285 280 277 275 272 270 268 267 266 265 264 262 261 260 259
344 1 4 1 356 354 352 348 343 339 337 335 331 328 326 324 321 319 318 316 314 313 312 310 306 302 300 298 295 290 285 280 276 274 272 270 268 267 266 263 262 260 259 258
286 317 334 341 344 345 345 345 342 339 336 334 331 327 325 324 323 321 318 316 315 313 312 310 307 305 303 300 297 293 289 284 280 276 273 271 269 267 266 265 263 260 259 258
277 296 313 323 330 334 336 339 339 338 336 334 331 328 327 325 324 323 320 318 317 316 314 312 309 307 305 303 299 296 291 286 282 279 276 274 272 269 267 264 262 260 259 258
Height
5628 5627 5625 5625 5624 5623 5622 5623 5624 5625 5627 5630 5633 5637 5642 5646 5651 5658 5665 5671 5680 5688 5695 5702 5709 5716 5723 5730 5736 5742 5748 5754 5759 5765 5770 5775 5779 5783 5787 5790 5793 5796 5799 5802
5629 5627 5626 5624 5623 5622 5622 5622 5624 5625 5627 5629 5633 5636 5640 5644 5648 5655 5661 5668 5675 5682 5689 5697 5704 5710 5717 5724 5730 5736 5742 5747 5753 5758 5762 5767 5771 5775 5779 5783 5786 5788 5791 5794
5628 5627 5625 5624 5622 5622 5622 5623 5624 5626 5628 5630 5633 5636 5639 5642 5647 5653 5658 5664 5671 5677 5685 5692 5698 5705 5712 5718 5724 5730 5735 5740 5745 5750 5755 5759 5763 5766 5770 5774 5777 5780 5783 5785
5627 5626 5625 5624 5622 5622 5623 5624 5625 5627 5629 5631 5634 5636 5639 5641 5646 5651 5656 5662 5668 5674 5681 5687 5693 5700 5706 5712 5717 5723 5728 5732 5737 5741 5746 5751 5755 5759 5763 5766 5769 5772 5774 5777
5628 5626 5626 5624 5623 5623 5624 5625 5626 5628 5630 5632 5634 5636 5640 5642 5646 5651 5655 5659 5665 5670 5677 5683 5688 5694 5699 5705 5711 5716 5720 5725 5729 5733 5738 5743 5747 5751 5754 5757 5760 5763 5766 5768
5628 5627 5626 5625 5625 5625 5626 5627 5628 5630 5631 5633 5634 5637 5640 5642 5646 5649 5653 5657 5662 5667 5672 5678 5683 5688 5694 5699 5704 5709 5714 5718 5722 5726 5730 5735 5739 5743 5746 5749 5751 5754 5757 5759
5629 5628 5627 5626 5626 5626 5628 5629 5631 5631 5632 5633 5635 5637 5640 5641 5644 5648 5652 5656 5660 5664 5668 5673 5678 5683 5689 5694 5698 5702 5707 5711 5715 5719 5723 5727 5730 5733 5736 5740 5742 5745 5747 5749
5629 5629 5628 5628 5628 5628 5629 5631 5633 5633 5634 5635 5636 5637 5640 5641 5644 5646 5649 5653 5657 5661 5665 5669 5673 5678 5682 5687 5691 5696 5700 5704 5707 5711 5714 5718 5721 5724 5727 5730 5733 5735 5737 5739
5629 5630 5629 5628 5629 5629 5630 5631 5633 5634 5635 5636 5637 5639 5641 5641 5643 5645 5648 5651 5654 5658 5661 5665 5668 5672 5676 5680 5684 5689 5693 5696 5699 5703 5706 5709 5712 5715 5717 5720 5723 5725 5727 5729
5630 5630 5630 5630 5630 5630 5631 5632 5633 5634 5635 5636 5638 5639 5641 5642 5643 5645 5647 5649 5652 5655 5658 5661 5664 5667 5670 5674 5678 5682 5685 5689 5691 5694 5697 5700 5702 5705 5707 5709 5712 5714 5716 5719
5630 5631 5631 5630 5630 5631 5632 5633 5633 5634 5635 5637 5638 5642 5640 5641 5642 5644 5646 5647 5649 5651 5654 5656 5659 5662 5664 5667 5670 5674 5677 5680 5682 5685 5687 5690 5692 5695 5697 5699 5702 5703 5705 5707
5631 5631 5631 5631 5631 5631 5632 5633 5634 5635 5636 5637 5639 5643 5640 5641 5641 5642 5644 5645 5646 5647 5649 5651 5653 5655 5658 5660 5663 5666 5668 5671 5673 5676 5678 5680 5682 5684 5686 5689 5690 5692 5694 5696
5631 5632 5632 5632 5634 5634 5633 5633 5634 5635 5636 5637 5638 5642 5639 5640 5641 5641 5642 5643 5643 5644 5645 5646 5647 5649 5651 5653 5655 5657 5659 5662 5664 5666 5668 5670 5672 5673 5675 5677 5678 5680 5682 5684
5632 5632 5633 5634 5633 5633 5634 5634 5635 5636 5636 5637 5637 5638 5638 5638 5639 5639 5639 5640 5640 5640 5640 5641 5641 5642 5643 5645 5647 5648 5650 5652 5653 5655 5657 5658 5660 5661 5663 5665 5666 5668 5670 5671
5633 5633 5633 5633 5633 5633 5634 5634 5635 5635 5636 5636 5637 5636 5636 5636 5636 5637 5637 5637 5636 5636 5636 5636 5636 5636 5636 5637 5638 5640 5641 5642 5643 5645 5646 5647 5648 5650 5651 5653 5654 5656 5657 5659
5634 5634 5633 5634 5633 5634 5634 5635 5635 5635 5635 5635 5635 5636 5635 5634 5634 5634 5634 5633 5633 5632 5631 5631 5630 5630 5629 5629 5630 5630 5630 5631 5632 5633 5634 5635 5636 5638 5639 5640 5642 5643 5644 5646
5635 5635 5635 5635 5634 5635 5635 5635 5635 5635 5635 5635 5634 5635 5633 5633 5632 5631 5631 5630 5629 5628 5626 5625 5624 5623 5622 5622 5621 5621 5620 5620 5621 5622 5622 5623 5624 5625 5626 5627 5629 5630 5631 5632
5635 5635 5635 5635 5636 5635 5637 5634 5634 5634 5633 5633 5633 5632 5631 5630 5629 5628 5627 5626 5624 5623 5621 5619 5618 5616 5614 5613 5612 5611 5610 5610 5610 5611 5611 5611 5611 5612 5613 5614 5615 5616 5617 5618
5636 5636 5636 5636 5635 5635 5635 5633 5632 5632 5632 5631 5630 5629 5628 5627 5626 5624 5622 5620 5618 5616 5614 5612 5610 5607 5605 5603 5602 5601 5600 5600 5599 5599 5599 5598 5598 5598 5599 5600 5601 5602 5603 5605
5636 5636 5636 5636 5635 5635 5636 5633 5631 5632 5630 5629 5627 5626 5625 5623 5622 5621 5617 5615 5612 5609 5606 5603 5601 5598 5595 5593 5592 5590 5589 5588 5587 5586 5586 5585 5585 5585 5586 5586 5587 5588 5590 5591
5636 5636 5636 5635 5634 5634 5634 5632 5631 5631 5630 5627 5625 5623 5621 5619 5618 5615 5612 5609 5606 5602 5599 5595 5591 5588 5586 5583 5581 5579 5577 5576 5575 5574 5573 5572 5572 5572 5573 5573 5574 5575 5576 5578
5636 5636 5635 5635 5634 5636 5632 5630 5630 5629 5626 5623 5622 5620 5617 5615 5612 5610 5606 5603 5599 5595 5591 5587 5583 5579 5576 5573 5570 5568 5566 5564 5563 5562 5561 5560 5560 5559 5559 5560 5561 5562 5563 5564
5635 5636 5635 5635 5635 5633 5630 5629 5627 5625 5623 5620 5618 5616 5613 5610 5607 5604 5600 5596 5592 5588 5584 5579 5575 5571 5567 5563 5560 5557 5555 5553 5551 5550 5548 5548 5547 5547 5546 5547 5547 5549 5550 5551
5634 5634 5633 5632 5632 5630 5628 5626 5624 5622 5619 5617 5614 5612 5609 5606 5602 5598 5594 5590 5585 5581 5576 5572 5567 5563 5559 5555 5551 5548 5545 5543 5540 5539 5537 5535 5535 5535 5534 5535 5536 5537 5538 5539
5632 5632 5631 5630 5630 5628 5626 5624 5621 5619 5616 5613 5610 5607 5604 5600 5596 5592 5587 5583 5578 5573 5569 5564 5559 5555 5551 5546 5542 5538 5535 5532 5530 5528 5526 5525 5524 5523 5523 5523 5523 5524 5526 5527
5630 5630 5629 5628 5627 5626 5624 5621 5618 5615 5612 5609 5605 5602 5598 5594 5590 5585 5580 5575 5570 5566 5561 5556 5551 5546 5541 5537 5532 5528 5524 5521 5519 5517 5515 5514 5513 5512 5511 5511 5512 5512 5513 5515